Verona, Italy

2:11 AM CET on March 24, 2017 (GMT +0100)
Villafranca Mil

Weather History for LIPX - February, 2014

Change the Weather History Date:

Tuesday, February 25, 2014

  Actual Average Record
Temperature  
Mean Temperature 46 °F -  
Max Temperature 58 °F 54 °F 64 °F (1998)
Min Temperature 35 °F 37 °F 26 °F (2003)
Degree Days  
Heating Degree Days 18    
Moisture  
Dew Point 38 °F    
Average Humidity 72    
Maximum Humidity 93    
Minimum Humidity 30    
Precipitation  
Precipitation 0.00 in 0.07 in - ()
Sea Level Pressure  
Sea Level Pressure 30.12 in    
Wind  
Wind Speed 2 mph ()    
Max Wind Speed 8 mph    
Max Gust Speed -    
Visibility 4.4 miles    
Events      
Averages and records for this station are not official NWS values.
T = Trace of Precipitation, MM = Missing Value Source: Averaged Metar Reports

Daily Weather History Graph

Daily Weather History Graph

Search for Another Location

Airport or City:

Trip Planner

Search our weather history database for the weather conditions in past years. The results will help you decide how hot, cold, wet, or windy it might be!

Date:

Astronomy

Feb. 25, 2014 Rise Set
Actual Time 7:02 AM CET 5:57 PM CET
Civil Twilight 6:32 AM CET 6:27 PM CET
Nautical Twilight 5:58 AM CET 7:01 PM CET
Astronomical Twilight 5:23 AM CET 7:36 PM CET
Moon 3:50 AM CET (2/25) 1:36 PM CET (2/25)
Length of Visible Light 11h 55m
Length of Day
10h 55m
Waning Crescent, 21% of the Moon is Illuminated
Feb 25
Waning Crescent
Mar 1
New
Mar 8
First Quarter
Mar 16
Full
Mar 24
Last Quarter

Hourly Weather History & Observations

Time (CET) Temp. Windchill Dew Point Humidity Pressure Visibility Wind Dir Wind Speed Gust Speed Precip Events Conditions
12:15 AM 41.0 °F - 39.2 °F 93% 30.15 in - WNW 1.2 mph - N/A   Clear
12:45 AM 41.0 °F - 37.4 °F 87% 30.15 in - NNW 1.2 mph - N/A   Clear
1:00 AM 42 °F - 37 °F 77% 30.18 in 6 mi NNW 1.2 mph - -  
1:15 AM 41.0 °F - 37.4 °F 87% 30.15 in - NNW 1.2 mph - N/A   Clear
1:45 AM 41.0 °F - 37.4 °F 87% 30.15 in - NNW 2.3 mph - N/A   Clear
2:15 AM 41.0 °F 37.1 °F 35.6 °F 81% 30.15 in - WNW 5.8 mph - N/A   Clear
2:45 AM 41.0 °F 35.8 °F 35.6 °F 81% 30.15 in - WNW 8.1 mph - N/A   Clear
3:15 AM 39.2 °F - 35.6 °F 87% 30.15 in - Calm Calm - N/A   Clear
3:45 AM 39.2 °F - 35.6 °F 87% 30.15 in - Calm Calm - N/A   Clear
4:00 AM 39 °F - 35 °F 81% 30.17 in 6 mi Calm Calm - -  
4:15 AM 37.4 °F - 33.8 °F 87% 30.12 in - NNW 1.2 mph - N/A   Clear
4:45 AM 37.4 °F - 33.8 °F 87% 30.12 in - Calm Calm - N/A   Clear
5:15 AM 37.4 °F - 35.6 °F 93% 30.12 in - Calm Calm - N/A   Clear
5:45 AM 37.4 °F - 33.8 °F 87% 30.12 in - Calm Calm - N/A   Clear
6:15 AM 35.6 °F - 33.8 °F 93% 30.12 in - Calm Calm - N/A   Clear
6:45 AM 35.6 °F - 33.8 °F 93% 30.12 in 3.7 mi North 2.3 mph - N/A   Unknown
7:00 AM 36 °F - 34 °F 91% 30.16 in 4 mi North 2.3 mph - -   Mist
7:15 AM 35.6 °F 31.7 °F 33.8 °F 93% 30.12 in 3.1 mi NNW 4.6 mph - N/A   Mist
7:45 AM 37.4 °F 32.8 °F 35.6 °F 93% 30.12 in 3.1 mi North 5.8 mph - N/A   Mist
8:15 AM 39.2 °F 35.9 °F 35.6 °F 87% 30.15 in 3.1 mi North 4.6 mph - N/A   Mist
8:45 AM 41.0 °F - 37.4 °F 87% 30.15 in 3.1 mi North 1.2 mph - N/A   Mist
9:15 AM 44.6 °F - 39.2 °F 81% 30.15 in 3.1 mi Calm Calm - N/A   Mist
9:45 AM 46.4 °F - 37.4 °F 71% 30.15 in 3.7 mi Calm Calm - N/A   Unknown
10:00 AM 46 °F - 37 °F 61% 30.17 in 4 mi Calm Calm - -   Mist
10:15 AM 50.0 °F - 39.2 °F 66% 30.15 in 3.7 mi Calm Calm - N/A   Unknown
10:45 AM 50.0 °F - 39.2 °F 66% 30.15 in 3.7 mi ESE 1.2 mph - N/A   Unknown
11:15 AM 50.0 °F - 37.4 °F 62% 30.15 in 4.3 mi SW 1.2 mph - N/A   Unknown
11:45 AM 51.8 °F - 39.2 °F 62% 30.15 in 4.3 mi WSW 1.2 mph - N/A   Unknown
12:15 PM 53.6 °F - 39.2 °F 58% 30.15 in 5.0 mi SSW 2.3 mph - N/A   Unknown
12:45 PM 55.4 °F - 35.6 °F 47% 30.12 in 5.0 mi South 3.5 mph - N/A   Unknown
1:00 PM 55 °F - 36 °F 37% 30.14 in 5 mi South 3.5 mph - -   Mist
1:15 PM 55.4 °F - 37.4 °F 51% 30.12 in - WSW 3.5 mph - N/A   Clear
1:45 PM 57.2 °F - 37.4 °F 48% 30.12 in - SSW 8.1 mph - N/A   Clear
2:15 PM 57.2 °F - 35.6 °F 44% 30.09 in - SSW 8.1 mph - N/A   Clear
2:45 PM 57.2 °F - 35.6 °F 44% 30.09 in - SW 8.1 mph - N/A   Clear
3:15 PM 57.2 °F - 33.8 °F 41% 30.09 in - WSW 5.8 mph - N/A   Clear
3:45 PM 57.2 °F - 33.8 °F 41% 30.09 in - SW 5.8 mph - N/A   Clear
4:00 PM 57 °F - 34 °F 30% 30.10 in 6 mi SW 5.8 mph - -   Partly Cloudy
4:15 PM 55.4 °F - 37.4 °F 51% 30.09 in 6.2 mi SW 4.6 mph - N/A   Scattered Clouds
4:45 PM 55.4 °F - 39.2 °F 54% 30.06 in 6.2 mi SW 5.8 mph - N/A   Scattered Clouds
5:15 PM 53.6 °F - 42.8 °F 67% 30.06 in 6.2 mi SSW 5.8 mph - N/A   Scattered Clouds
5:45 PM 53.6 °F - 41.0 °F 62% 30.06 in 6.2 mi WSW 3.5 mph - N/A   Scattered Clouds
6:15 PM 51.8 °F - 42.8 °F 71% 30.06 in 5.0 mi SW 4.6 mph - N/A   Scattered Clouds
6:45 PM 51.8 °F - 42.8 °F 71% 30.09 in 5.0 mi SW 4.6 mph - N/A   Mostly Cloudy
7:00 PM 52 °F - 42 °F 59% 30.10 in 5 mi SW 4.6 mph - -   Mist
7:15 PM 51.8 °F - 42.8 °F 71% 30.09 in 5.0 mi SW 5.8 mph - N/A   Mostly Cloudy
7:45 PM 50.0 °F - 42.8 °F 76% 30.09 in 4.3 mi SW 4.6 mph - N/A   Mostly Cloudy
8:15 PM 51.8 °F - 42.8 °F 71% 30.09 in 3.7 mi West 2.3 mph - N/A   Mostly Cloudy
8:45 PM 50.0 °F - 42.8 °F 76% 30.12 in 3.7 mi Calm Calm - N/A   Mostly Cloudy
9:15 PM 50.0 °F - 42.8 °F 76% 30.12 in 3.7 mi Calm Calm - N/A   Mostly Cloudy
9:45 PM 50.0 °F - 42.8 °F 76% 30.12 in 3.7 mi North 1.2 mph - N/A   Mostly Cloudy
10:00 PM 51 °F - 43 °F 65% 30.13 in 4 mi North 1.2 mph - -   Mist
10:15 PM 50.0 °F - 42.8 °F 76% 30.12 in 3.7 mi North 1.2 mph - N/A   Mostly Cloudy
10:45 PM 50.0 °F - 42.8 °F 76% 30.12 in 3.7 mi Calm Calm - N/A   Mostly Cloudy
11:15 PM 50.0 °F - 42.8 °F 76% 30.12 in 3.7 mi Calm Calm - N/A   Mostly Cloudy
11:45 PM 48.2 °F - 42.8 °F 82% 30.12 in 3.7 mi NNE 1.2 mph - N/A   Mostly Cloudy